User: anonymous   Login
Location: Prairie View Elementary School
(39.8322°N, 99.5698°W)
Time: 06:40:54
(UTC+00:00)
Language:

Cosmos 1655 Rocket - Orbit

View from above orbital plane
View from above orbital plane
View from above satellite
View from above satellite

Ground track
Ground track

The orbit data is extracted from the following two-line orbital elements,

1 15752U 85041B   20049.79097070 -.00000009 +00000-0 -25243-4 0  9993
2 15752 082.9502 306.1573 0023102 296.0387 063.8390 13.73117221739631
Epoch (UTC): 18 February 2020 18:58:59
Eccentricity: 0.0023102
inclination: 82.9502°
perigee height: 971 km
apogee height: 1005 km
right ascension of ascending node: 306.1573°
argument of perigee: 296.0387°
revolutions per day: 13.73117221
mean anomaly at epoch: 63.8390°
orbit number at epoch: 73963

The dashed part of the orbit path shows where the satellite is in the earth's shadow,  

DLR